owner,sensor,date,latitude,longitude,air_temperature,qcFlag 
DISL,ioos:station:DISL:PPTA:1,2015-03-01T00:00:00Z,30.2791,-87.5561,13.57,1111122 
DISL,ioos:station:DISL:PPTA:1,2015-03-01T00:30:00Z,30.2791,-87.5561,13.64,1111122 
DISL,ioos:station:DISL:PPTA:1,2015-03-01T01:00:00Z,30.2791,-87.5561,13.43,1111122 
DISL,ioos:station:DISL:PPTA:1,2015-03-01T01:30:00Z,30.2791,-87.5561,13.4,1111122 
DISL,ioos:station:DISL:PPTA:1,2015-03-01T02:00:00Z,30.2791,-87.5561,13.31,1111122 
DISL,ioos:station:DISL:PPTA:1,2015-03-01T02:30:00Z,30.2791,-87.5561,13.0,1111122 
DISL,ioos:station:DISL:PPTA:1,2015-03-01T03:00:00Z,30.2791,-87.5561,12.69,1111122 
DISL,ioos:station:DISL:PPTA:1,2015-03-01T03:30:00Z,30.2791,-87.5561,12.35,1111122 
DISL,ioos:station:DISL:PPTA:1,2015-03-01T04:00:00Z,30.2791,-87.5561,11.8,1111122 
DISL,ioos:station:DISL:PPTA:1,2015-03-01T04:30:00Z,30.2791,-87.5561,11.54,1111122 
DISL,ioos:station:DISL:PPTA:1,2015-03-01T05:00:00Z,30.2791,-87.5561,11.26,1111122 
DISL,ioos:station:DISL:PPTA:1,2015-03-01T05:30:00Z,30.2791,-87.5561,11.06,1111122 
DISL,ioos:station:DISL:PPTA:1,2015-03-01T06:00:00Z,30.2791,-87.5561,10.86,1111122 
DISL,ioos:station:DISL:PPTA:1,2015-03-01T06:30:00Z,30.2791,-87.5561,10.76,1111122 
DISL,ioos:station:DISL:PPTA:1,2015-03-01T07:00:00Z,30.2791,-87.5561,10.62,1111122 
DISL,ioos:station:DISL:PPTA:1,2015-03-01T07:30:00Z,30.2791,-87.5561,10.49,1111122 
DISL,ioos:station:DISL:PPTA:1,2015-03-01T08:00:00Z,30.2791,-87.5561,10.38,1111122 
DISL,ioos:station:DISL:PPTA:1,2015-03-01T08:30:00Z,30.2791,-87.5561,10.18,1111122 
DISL,ioos:station:DISL:PPTA:1,2015-03-01T09:00:00Z,30.2791,-87.5561,10.22,1111122 
DISL,ioos:station:DISL:PPTA:1,2015-03-01T09:30:00Z,30.2791,-87.5561,10.32,1111122 
DISL,ioos:station:DISL:PPTA:1,2015-03-01T10:00:00Z,30.2791,-87.5561,10.19,1111122 
DISL,ioos:station:DISL:PPTA:1,2015-03-01T10:30:00Z,30.2791,-87.5561,10.15,1111122 
DISL,ioos:station:DISL:PPTA:1,2015-03-01T11:00:00Z,30.2791,-87.5561,10.29,1111122 
DISL,ioos:station:DISL:PPTA:1,2015-03-01T11:30:00Z,30.2791,-87.5561,10.53,1111122 
DISL,ioos:station:DISL:PPTA:1,2015-03-01T12:00:00Z,30.2791,-87.5561,10.39,1111122 
DISL,ioos:station:DISL:PPTA:1,2015-03-01T12:30:00Z,30.2791,-87.5561,10.46,1111122 
DISL,ioos:station:DISL:PPTA:1,2015-03-01T13:00:00Z,30.2791,-87.5561,10.62,1111122 
DISL,ioos:station:DISL:PPTA:1,2015-03-01T13:30:00Z,30.2791,-87.5561,10.83,1111122 
DISL,ioos:station:DISL:PPTA:1,2015-03-01T14:00:00Z,30.2791,-87.5561,10.9,1111122 
DISL,ioos:station:DISL:PPTA:1,2015-03-01T14:30:00Z,30.2791,-87.5561,10.9,1111122 
DISL,ioos:station:DISL:PPTA:1,2015-03-01T15:00:00Z,30.2791,-87.5561,10.93,1111122 
DISL,ioos:station:DISL:PPTA:1,2015-03-01T15:30:00Z,30.2791,-87.5561,11.0,1111122 
DISL,ioos:station:DISL:PPTA:1,2015-03-01T16:00:00Z,30.2791,-87.5561,11.07,1111122 
DISL,ioos:station:DISL:PPTA:1,2015-03-01T16:30:00Z,30.2791,-87.5561,11.2,1111122 
DISL,ioos:station:DISL:PPTA:1,2015-03-01T17:00:00Z,30.2791,-87.5561,11.24,1111122 
DISL,ioos:station:DISL:PPTA:1,2015-03-01T17:30:00Z,30.2791,-87.5561,11.47,1111122 
DISL,ioos:station:DISL:PPTA:1,2015-03-01T18:00:00Z,30.2791,-87.5561,11.74,1111122 
DISL,ioos:station:DISL:PPTA:1,2015-03-01T18:30:00Z,30.2791,-87.5561,12.08,1111122 
DISL,ioos:station:DISL:PPTA:1,2015-03-01T19:00:00Z,30.2791,-87.5561,12.22,1111122 
DISL,ioos:station:DISL:PPTA:1,2015-03-01T19:30:00Z,30.2791,-87.5561,12.46,1111122 
DISL,ioos:station:DISL:PPTA:1,2015-03-01T20:00:00Z,30.2791,-87.5561,12.66,1111122 
DISL,ioos:station:DISL:PPTA:1,2015-03-01T20:30:00Z,30.2791,-87.5561,13.17,1111122 
DISL,ioos:station:DISL:PPTA:1,2015-03-01T21:00:00Z,30.2791,-87.5561,13.27,1111122 
DISL,ioos:station:DISL:PPTA:1,2015-03-01T21:30:00Z,30.2791,-87.5561,13.34,1111122 
DISL,ioos:station:DISL:PPTA:1,2015-03-01T22:00:00Z,30.2791,-87.5561,13.47,1111122 
DISL,ioos:station:DISL:PPTA:1,2015-03-01T22:30:00Z,30.2791,-87.5561,13.4,1111122 
DISL,ioos:station:DISL:PPTA:1,2015-03-01T23:00:00Z,30.2791,-87.5561,13.61,1111122 
DISL,ioos:station:DISL:PPTA:1,2015-03-01T23:30:00Z,30.2791,-87.5561,13.81,1111122 
DISL,ioos:station:DISL:PPTA:1,2015-03-02T00:00:00Z,30.2791,-87.5561,13.78,1111122 
DISL,ioos:station:DISL:PPTA:1,2015-03-02T00:30:00Z,30.2791,-87.5561,13.67,1111122 
DISL,ioos:station:DISL:PPTA:1,2015-03-02T01:00:00Z,30.2791,-87.5561,13.74,1111122 
DISL,ioos:station:DISL:PPTA:1,2015-03-02T01:30:00Z,30.2791,-87.5561,13.91,1111122 
DISL,ioos:station:DISL:PPTA:1,2015-03-02T02:00:00Z,30.2791,-87.5561,13.71,1111122 
DISL,ioos:station:DISL:PPTA:1,2015-03-02T02:30:00Z,30.2791,-87.5561,14.05,1111122 
DISL,ioos:station:DISL:PPTA:1,2015-03-02T03:00:00Z,30.2791,-87.5561,13.6,1111122 
DISL,ioos:station:DISL:PPTA:1,2015-03-02T03:30:00Z,30.2791,-87.5561,13.74,1111122 
DISL,ioos:station:DISL:PPTA:1,2015-03-02T04:00:00Z,30.2791,-87.5561,13.5,1111122 
DISL,ioos:station:DISL:PPTA:1,2015-03-02T04:30:00Z,30.2791,-87.5561,13.37,1111122 
DISL,ioos:station:DISL:PPTA:1,2015-03-02T05:00:00Z,30.2791,-87.5561,13.23,1111122 
DISL,ioos:station:DISL:PPTA:1,2015-03-02T05:30:00Z,30.2791,-87.5561,13.31,1111122 
DISL,ioos:station:DISL:PPTA:1,2015-03-02T06:00:00Z,30.2791,-87.5561,13.07,1111122 
DISL,ioos:station:DISL:PPTA:1,2015-03-02T06:30:00Z,30.2791,-87.5561,12.93,1111122 
DISL,ioos:station:DISL:PPTA:1,2015-03-02T07:00:00Z,30.2791,-87.5561,12.73,1111122 
DISL,ioos:station:DISL:PPTA:1,2015-03-02T07:30:00Z,30.2791,-87.5561,12.69,1111122 
DISL,ioos:station:DISL:PPTA:1,2015-03-02T08:00:00Z,30.2791,-87.5561,13.34,1111122 
DISL,ioos:station:DISL:PPTA:1,2015-03-02T08:30:00Z,30.2791,-87.5561,12.93,1111122 
DISL,ioos:station:DISL:PPTA:1,2015-03-02T09:00:00Z,30.2791,-87.5561,13.21,1111122 
DISL,ioos:station:DISL:PPTA:1,2015-03-02T09:30:00Z,30.2791,-87.5561,13.55,1111122 
DISL,ioos:station:DISL:PPTA:1,2015-03-02T10:00:00Z,30.2791,-87.5561,13.99,1111122 
DISL,ioos:station:DISL:PPTA:1,2015-03-02T10:30:00Z,30.2791,-87.5561,14.8,1111122 
DISL,ioos:station:DISL:PPTA:1,2015-03-02T11:00:00Z,30.2791,-87.5561,15.04,1111122 
DISL,ioos:station:DISL:PPTA:1,2015-03-02T11:30:00Z,30.2791,-87.5561,15.17,1111122 
DISL,ioos:station:DISL:PPTA:1,2015-03-02T12:00:00Z,30.2791,-87.5561,14.93,1111122 
DISL,ioos:station:DISL:PPTA:1,2015-03-02T12:30:00Z,30.2791,-87.5561,15.64,1111122 
DISL,ioos:station:DISL:PPTA:1,2015-03-02T13:00:00Z,30.2791,-87.5561,14.96,1111122 
DISL,ioos:station:DISL:PPTA:1,2015-03-02T13:30:00Z,30.2791,-87.5561,15.03,1111122 
DISL,ioos:station:DISL:PPTA:1,2015-03-02T14:00:00Z,30.2791,-87.5561,14.76,1111122 
DISL,ioos:station:DISL:PPTA:1,2015-03-02T14:30:00Z,30.2791,-87.5561,14.14,1111122 
DISL,ioos:station:DISL:PPTA:1,2015-03-02T15:00:00Z,30.2791,-87.5561,13.6,1111122 
DISL,ioos:station:DISL:PPTA:1,2015-03-02T15:30:00Z,30.2791,-87.5561,13.91,1111122 
DISL,ioos:station:DISL:PPTA:1,2015-03-02T16:00:00Z,30.2791,-87.5561,14.46,1111122 
DISL,ioos:station:DISL:PPTA:1,2015-03-02T16:30:00Z,30.2791,-87.5561,15.41,1111122 
DISL,ioos:station:DISL:PPTA:1,2015-03-02T17:00:00Z,30.2791,-87.5561,15.98,1111122 
DISL,ioos:station:DISL:PPTA:1,2015-03-02T17:30:00Z,30.2791,-87.5561,15.91,1111122 
DISL,ioos:station:DISL:PPTA:1,2015-03-02T18:00:00Z,30.2791,-87.5561,16.85,1111122 
DISL,ioos:station:DISL:PPTA:1,2015-03-02T18:30:00Z,30.2791,-87.5561,16.71,1111122 
DISL,ioos:station:DISL:PPTA:1,2015-03-02T19:00:00Z,30.2791,-87.5561,15.92,1111122 
DISL,ioos:station:DISL:PPTA:1,2015-03-02T19:30:00Z,30.2791,-87.5561,16.26,1111122 
DISL,ioos:station:DISL:PPTA:1,2015-03-02T20:00:00Z,30.2791,-87.5561,16.03,1111122 
DISL,ioos:station:DISL:PPTA:1,2015-03-02T20:30:00Z,30.2791,-87.5561,16.4,1111122 
DISL,ioos:station:DISL:PPTA:1,2015-03-02T21:00:00Z,30.2791,-87.5561,16.85,1111122 
DISL,ioos:station:DISL:PPTA:1,2015-03-02T21:30:00Z,30.2791,-87.5561,17.02,1111122 
DISL,ioos:station:DISL:PPTA:1,2015-03-02T22:00:00Z,30.2791,-87.5561,17.49,1111122 
DISL,ioos:station:DISL:PPTA:1,2015-03-02T22:30:00Z,30.2791,-87.5561,17.08,1111122 
DISL,ioos:station:DISL:PPTA:1,2015-03-02T23:00:00Z,30.2791,-87.5561,16.78,1111122 
DISL,ioos:station:DISL:PPTA:1,2015-03-02T23:30:00Z,30.2791,-87.5561,16.68,1111122 
DISL,ioos:station:DISL:PPTA:1,2015-03-03T00:00:00Z,30.2791,-87.5561,16.11,1111122 
DISL,ioos:station:DISL:PPTA:1,2015-03-03T00:30:00Z,30.2791,-87.5561,15.84,1111122 
DISL,ioos:station:DISL:PPTA:1,2015-03-03T01:00:00Z,30.2791,-87.5561,15.74,1111122 
DISL,ioos:station:DISL:PPTA:1,2015-03-03T01:30:00Z,30.2791,-87.5561,16.05,1111122 
DISL,ioos:station:DISL:PPTA:1,2015-03-03T02:00:00Z,30.2791,-87.5561,17.62,1111122 
DISL,ioos:station:DISL:PPTA:1,2015-03-03T02:30:00Z,30.2791,-87.5561,17.14,1111122 
DISL,ioos:station:DISL:PPTA:1,2015-03-03T03:00:00Z,30.2791,-87.5561,16.63,1111122 
DISL,ioos:station:DISL:PPTA:1,2015-03-03T03:30:00Z,30.2791,-87.5561,17.1,1111122 
DISL,ioos:station:DISL:PPTA:1,2015-03-03T04:00:00Z,30.2791,-87.5561,16.15,1111122 
DISL,ioos:station:DISL:PPTA:1,2015-03-03T04:30:00Z,30.2791,-87.5561,17.1,1111122 
DISL,ioos:station:DISL:PPTA:1,2015-03-03T05:00:00Z,30.2791,-87.5561,16.8,1111122 
DISL,ioos:station:DISL:PPTA:1,2015-03-03T05:30:00Z,30.2791,-87.5561,16.32,1111122 
DISL,ioos:station:DISL:PPTA:1,2015-03-03T06:00:00Z,30.2791,-87.5561,16.15,1111122 
DISL,ioos:station:DISL:PPTA:1,2015-03-03T06:30:00Z,30.2791,-87.5561,16.39,1111122 
DISL,ioos:station:DISL:PPTA:1,2015-03-03T07:00:00Z,30.2791,-87.5561,16.28,1111122 
DISL,ioos:station:DISL:PPTA:1,2015-03-03T07:30:00Z,30.2791,-87.5561,15.94,1111122 
DISL,ioos:station:DISL:PPTA:1,2015-03-03T08:00:00Z,30.2791,-87.5561,16.15,1111122 
DISL,ioos:station:DISL:PPTA:1,2015-03-03T08:30:00Z,30.2791,-87.5561,16.18,1111122 
DISL,ioos:station:DISL:PPTA:1,2015-03-03T09:00:00Z,30.2791,-87.5561,15.91,1111122 
DISL,ioos:station:DISL:PPTA:1,2015-03-03T09:30:00Z,30.2791,-87.5561,15.46,1111122 
DISL,ioos:station:DISL:PPTA:1,2015-03-03T10:00:00Z,30.2791,-87.5561,15.53,1111122 
DISL,ioos:station:DISL:PPTA:1,2015-03-03T10:30:00Z,30.2791,-87.5561,15.84,1111122 
DISL,ioos:station:DISL:PPTA:1,2015-03-03T11:00:00Z,30.2791,-87.5561,15.94,1111122 
DISL,ioos:station:DISL:PPTA:1,2015-03-03T11:30:00Z,30.2791,-87.5561,16.66,1111122 
DISL,ioos:station:DISL:PPTA:1,2015-03-03T12:00:00Z,30.2791,-87.5561,16.56,1111122 
DISL,ioos:station:DISL:PPTA:1,2015-03-03T12:30:00Z,30.2791,-87.5561,16.52,1111122 
DISL,ioos:station:DISL:PPTA:1,2015-03-03T13:00:00Z,30.2791,-87.5561,16.05,1111122 
DISL,ioos:station:DISL:PPTA:1,2015-03-03T13:30:00Z,30.2791,-87.5561,16.45,1111122 
DISL,ioos:station:DISL:PPTA:1,2015-03-03T14:00:00Z,30.2791,-87.5561,16.39,1111122 
DISL,ioos:station:DISL:PPTA:1,2015-03-03T14:30:00Z,30.2791,-87.5561,16.15,1111122 
DISL,ioos:station:DISL:PPTA:1,2015-03-03T15:00:00Z,30.2791,-87.5561,16.39,1111122 
DISL,ioos:station:DISL:PPTA:1,2015-03-03T15:30:00Z,30.2791,-87.5561,16.73,1111122 
DISL,ioos:station:DISL:PPTA:1,2015-03-03T16:00:00Z,30.2791,-87.5561,17.4,1111122 
DISL,ioos:station:DISL:PPTA:1,2015-03-03T16:30:00Z,30.2791,-87.5561,17.19,1111122 
DISL,ioos:station:DISL:PPTA:1,2015-03-03T17:00:00Z,30.2791,-87.5561,17.32,1111122 
DISL,ioos:station:DISL:PPTA:1,2015-03-03T17:30:00Z,30.2791,-87.5561,17.25,1111122 
DISL,ioos:station:DISL:PPTA:1,2015-03-03T18:00:00Z,30.2791,-87.5561,17.49,1111122 
DISL,ioos:station:DISL:PPTA:1,2015-03-03T18:30:00Z,30.2791,-87.5561,17.96,1111122 
DISL,ioos:station:DISL:PPTA:1,2015-03-03T19:00:00Z,30.2791,-87.5561,18.19,1111122 
DISL,ioos:station:DISL:PPTA:1,2015-03-03T19:30:00Z,30.2791,-87.5561,18.87,1111122 
DISL,ioos:station:DISL:PPTA:1,2015-03-03T20:00:00Z,30.2791,-87.5561,18.74,1111122 
DISL,ioos:station:DISL:PPTA:1,2015-03-03T20:30:00Z,30.2791,-87.5561,19.39,1111122 
DISL,ioos:station:DISL:PPTA:1,2015-03-03T21:00:00Z,30.2791,-87.5561,19.45,1111122 
DISL,ioos:station:DISL:PPTA:1,2015-03-03T21:30:00Z,30.2791,-87.5561,18.87,1111122 
DISL,ioos:station:DISL:PPTA:1,2015-03-03T22:00:00Z,30.2791,-87.5561,19.39,1111122 
DISL,ioos:station:DISL:PPTA:1,2015-03-03T22:30:00Z,30.2791,-87.5561,18.91,1111122 
DISL,ioos:station:DISL:PPTA:1,2015-03-03T23:00:00Z,30.2791,-87.5561,18.61,1111122 
DISL,ioos:station:DISL:PPTA:1,2015-03-03T23:30:00Z,30.2791,-87.5561,18.17,1111122 
DISL,ioos:station:DISL:PPTA:1,2015-03-04T00:00:00Z,30.2791,-87.5561,17.29,1111122 
DISL,ioos:station:DISL:PPTA:1,2015-03-04T00:30:00Z,30.2791,-87.5561,17.08,1111122 
DISL,ioos:station:DISL:PPTA:1,2015-03-04T01:00:00Z,30.2791,-87.5561,16.99,1111122 
DISL,ioos:station:DISL:PPTA:1,2015-03-04T01:30:00Z,30.2791,-87.5561,16.79,1111122 
DISL,ioos:station:DISL:PPTA:1,2015-03-04T02:00:00Z,30.2791,-87.5561,16.93,1111122 
DISL,ioos:station:DISL:PPTA:1,2015-03-04T02:30:00Z,30.2791,-87.5561,16.63,1111122 
DISL,ioos:station:DISL:PPTA:1,2015-03-04T03:00:00Z,30.2791,-87.5561,16.86,1111122 
DISL,ioos:station:DISL:PPTA:1,2015-03-04T03:30:00Z,30.2791,-87.5561,16.69,1111122 
DISL,ioos:station:DISL:PPTA:1,2015-03-04T04:00:00Z,30.2791,-87.5561,16.59,1111122 
DISL,ioos:station:DISL:PPTA:1,2015-03-04T04:30:00Z,30.2791,-87.5561,16.45,1111122 
DISL,ioos:station:DISL:PPTA:1,2015-03-04T05:00:00Z,30.2791,-87.5561,16.73,1111122 
DISL,ioos:station:DISL:PPTA:1,2015-03-04T05:30:00Z,30.2791,-87.5561,16.59,1111122 
DISL,ioos:station:DISL:PPTA:1,2015-03-04T06:00:00Z,30.2791,-87.5561,16.39,1111122 
DISL,ioos:station:DISL:PPTA:1,2015-03-04T06:30:00Z,30.2791,-87.5561,16.28,1111122 
DISL,ioos:station:DISL:PPTA:1,2015-03-04T07:00:00Z,30.2791,-87.5561,16.42,1111122 
DISL,ioos:station:DISL:PPTA:1,2015-03-04T07:30:00Z,30.2791,-87.5561,16.69,1111122 
DISL,ioos:station:DISL:PPTA:1,2015-03-04T08:00:00Z,30.2791,-87.5561,16.86,1111122 
DISL,ioos:station:DISL:PPTA:1,2015-03-04T08:30:00Z,30.2791,-87.5561,16.86,1111122 
DISL,ioos:station:DISL:PPTA:1,2015-03-04T09:00:00Z,30.2791,-87.5561,16.39,1111122 
DISL,ioos:station:DISL:PPTA:1,2015-03-04T09:30:00Z,30.2791,-87.5561,16.39,1111122 
DISL,ioos:station:DISL:PPTA:1,2015-03-04T10:00:00Z,30.2791,-87.5561,16.32,1111122 
DISL,ioos:station:DISL:PPTA:1,2015-03-04T10:30:00Z,30.2791,-87.5561,16.45,1111122 
DISL,ioos:station:DISL:PPTA:1,2015-03-04T11:00:00Z,30.2791,-87.5561,16.9,1111122 
DISL,ioos:station:DISL:PPTA:1,2015-03-04T11:30:00Z,30.2791,-87.5561,16.39,1111122 
DISL,ioos:station:DISL:PPTA:1,2015-03-04T12:00:00Z,30.2791,-87.5561,16.52,1111122 
DISL,ioos:station:DISL:PPTA:1,2015-03-04T12:30:00Z,30.2791,-87.5561,16.52,1111122 
DISL,ioos:station:DISL:PPTA:1,2015-03-04T13:00:00Z,30.2791,-87.5561,16.97,1111122 
DISL,ioos:station:DISL:PPTA:1,2015-03-04T13:30:00Z,30.2791,-87.5561,17.99,1111122 
DISL,ioos:station:DISL:PPTA:1,2015-03-04T14:00:00Z,30.2791,-87.5561,17.7,1111122 
DISL,ioos:station:DISL:PPTA:1,2015-03-04T14:30:00Z,30.2791,-87.5561,17.51,1111122 
DISL,ioos:station:DISL:PPTA:1,2015-03-04T15:00:00Z,30.2791,-87.5561,18.19,1111122 
DISL,ioos:station:DISL:PPTA:1,2015-03-04T15:30:00Z,30.2791,-87.5561,18.45,1111122 
DISL,ioos:station:DISL:PPTA:1,2015-03-04T16:00:00Z,30.2791,-87.5561,18.99,1111122 
DISL,ioos:station:DISL:PPTA:1,2015-03-04T16:30:00Z,30.2791,-87.5561,19.89,1111122 
DISL,ioos:station:DISL:PPTA:1,2015-03-04T17:00:00Z,30.2791,-87.5561,20.47,1111122 
DISL,ioos:station:DISL:PPTA:1,2015-03-04T17:30:00Z,30.2791,-87.5561,20.8,1111122 
DISL,ioos:station:DISL:PPTA:1,2015-03-04T18:00:00Z,30.2791,-87.5561,21.2,1111122 
DISL,ioos:station:DISL:PPTA:1,2015-03-04T18:30:00Z,30.2791,-87.5561,21.37,1111122 
DISL,ioos:station:DISL:PPTA:1,2015-03-04T19:00:00Z,30.2791,-87.5561,20.89,1111122 
DISL,ioos:station:DISL:PPTA:1,2015-03-04T19:30:00Z,30.2791,-87.5561,21.34,1111122 
DISL,ioos:station:DISL:PPTA:1,2015-03-04T20:00:00Z,30.2791,-87.5561,21.51,1111122 
DISL,ioos:station:DISL:PPTA:1,2015-03-04T20:30:00Z,30.2791,-87.5561,21.56,1111122 
DISL,ioos:station:DISL:PPTA:1,2015-03-04T21:00:00Z,30.2791,-87.5561,21.02,1111122 
DISL,ioos:station:DISL:PPTA:1,2015-03-04T21:30:00Z,30.2791,-87.5561,21.17,1111122 
DISL,ioos:station:DISL:PPTA:1,2015-03-04T22:00:00Z,30.2791,-87.5561,20.46,1111122 
DISL,ioos:station:DISL:PPTA:1,2015-03-04T22:30:00Z,30.2791,-87.5561,19.95,1111122 
DISL,ioos:station:DISL:PPTA:1,2015-03-04T23:00:00Z,30.2791,-87.5561,19.93,1111122 
DISL,ioos:station:DISL:PPTA:1,2015-03-04T23:30:00Z,30.2791,-87.5561,18.81,1111122 
DISL,ioos:station:DISL:PPTA:1,2015-03-05T00:00:00Z,30.2791,-87.5561,18.33,1111122 
DISL,ioos:station:DISL:PPTA:1,2015-03-05T00:30:00Z,30.2791,-87.5561,18.23,1111122 
DISL,ioos:station:DISL:PPTA:1,2015-03-05T01:00:00Z,30.2791,-87.5561,18.3,1111122 
DISL,ioos:station:DISL:PPTA:1,2015-03-05T01:30:00Z,30.2791,-87.5561,18.27,1111122 
DISL,ioos:station:DISL:PPTA:1,2015-03-05T02:00:00Z,30.2791,-87.5561,18.2,1111122 
DISL,ioos:station:DISL:PPTA:1,2015-03-05T02:30:00Z,30.2791,-87.5561,18.27,1111122 
DISL,ioos:station:DISL:PPTA:1,2015-03-05T03:00:00Z,30.2791,-87.5561,18.27,1111122 
DISL,ioos:station:DISL:PPTA:1,2015-03-05T03:30:00Z,30.2791,-87.5561,18.44,1111122 
DISL,ioos:station:DISL:PPTA:1,2015-03-05T04:00:00Z,30.2791,-87.5561,18.55,1111122 
DISL,ioos:station:DISL:PPTA:1,2015-03-05T04:30:00Z,30.2791,-87.5561,18.41,1111122 
DISL,ioos:station:DISL:PPTA:1,2015-03-05T05:00:00Z,30.2791,-87.5561,18.55,1111122 
DISL,ioos:station:DISL:PPTA:1,2015-03-05T05:30:00Z,30.2791,-87.5561,18.61,1111122 
DISL,ioos:station:DISL:PPTA:1,2015-03-05T06:00:00Z,30.2791,-87.5561,18.44,1111122 
DISL,ioos:station:DISL:PPTA:1,2015-03-05T06:30:00Z,30.2791,-87.5561,18.41,1111122 
DISL,ioos:station:DISL:PPTA:1,2015-03-05T07:00:00Z,30.2791,-87.5561,19.3,1111122 
DISL,ioos:station:DISL:PPTA:1,2015-03-05T07:30:00Z,30.2791,-87.5561,19.23,1111122 
DISL,ioos:station:DISL:PPTA:1,2015-03-05T08:00:00Z,30.2791,-87.5561,19.09,1111122 
DISL,ioos:station:DISL:PPTA:1,2015-03-05T08:30:00Z,30.2791,-87.5561,18.61,1111122 
DISL,ioos:station:DISL:PPTA:1,2015-03-05T09:00:00Z,30.2791,-87.5561,18.41,1111122 
DISL,ioos:station:DISL:PPTA:1,2015-03-05T09:30:00Z,30.2791,-87.5561,18.68,1111122 
DISL,ioos:station:DISL:PPTA:1,2015-03-05T10:00:00Z,30.2791,-87.5561,18.17,1111122 
DISL,ioos:station:DISL:PPTA:1,2015-03-05T10:30:00Z,30.2791,-87.5561,18.61,1111122 
DISL,ioos:station:DISL:PPTA:1,2015-03-05T11:00:00Z,30.2791,-87.5561,18.0,1111122 
DISL,ioos:station:DISL:PPTA:1,2015-03-05T11:30:00Z,30.2791,-87.5561,17.46,1111122 
DISL,ioos:station:DISL:PPTA:1,2015-03-05T12:00:00Z,30.2791,-87.5561,18.11,1111122 
DISL,ioos:station:DISL:PPTA:1,2015-03-05T12:30:00Z,30.2791,-87.5561,18.07,1111122 
DISL,ioos:station:DISL:PPTA:1,2015-03-05T13:00:00Z,30.2791,-87.5561,18.52,1111122 
DISL,ioos:station:DISL:PPTA:1,2015-03-05T13:30:00Z,30.2791,-87.5561,19.47,1111122 
DISL,ioos:station:DISL:PPTA:1,2015-03-05T14:00:00Z,30.2791,-87.5561,19.49,1111122 
DISL,ioos:station:DISL:PPTA:1,2015-03-05T14:30:00Z,30.2791,-87.5561,19.9,1111122 
DISL,ioos:station:DISL:PPTA:1,2015-03-05T15:00:00Z,30.2791,-87.5561,19.18,1111122 
DISL,ioos:station:DISL:PPTA:1,2015-03-05T15:30:00Z,30.2791,-87.5561,12.15,1111122 
DISL,ioos:station:DISL:PPTA:1,2015-03-05T16:00:00Z,30.2791,-87.5561,10.17,1111122 
DISL,ioos:station:DISL:PPTA:1,2015-03-05T16:30:00Z,30.2791,-87.5561,9.13,1111122 
DISL,ioos:station:DISL:PPTA:1,2015-03-05T17:00:00Z,30.2791,-87.5561,9.49,1111122 
DISL,ioos:station:DISL:PPTA:1,2015-03-05T17:30:00Z,30.2791,-87.5561,10.69,1111122 
DISL,ioos:station:DISL:PPTA:1,2015-03-05T18:00:00Z,30.2791,-87.5561,12.52,1111122 
DISL,ioos:station:DISL:PPTA:1,2015-03-05T18:30:00Z,30.2791,-87.5561,13.44,1111122 
DISL,ioos:station:DISL:PPTA:1,2015-03-05T19:00:00Z,30.2791,-87.5561,13.77,1111122 
DISL,ioos:station:DISL:PPTA:1,2015-03-05T19:30:00Z,30.2791,-87.5561,13.01,1111122 
DISL,ioos:station:DISL:PPTA:1,2015-03-05T20:00:00Z,30.2791,-87.5561,11.72,1111122 
DISL,ioos:station:DISL:PPTA:1,2015-03-05T20:30:00Z,30.2791,-87.5561,9.74,1111122 
DISL,ioos:station:DISL:PPTA:1,2015-03-05T21:00:00Z,30.2791,-87.5561,9.01,1111122 
DISL,ioos:station:DISL:PPTA:1,2015-03-05T21:30:00Z,30.2791,-87.5561,7.581,1111122 
DISL,ioos:station:DISL:PPTA:1,2015-03-05T22:00:00Z,30.2791,-87.5561,7.114,1111122 
DISL,ioos:station:DISL:PPTA:1,2015-03-05T22:30:00Z,30.2791,-87.5561,6.373,1111122 
DISL,ioos:station:DISL:PPTA:1,2015-03-05T23:00:00Z,30.2791,-87.5561,6.204,1111122 
DISL,ioos:station:DISL:PPTA:1,2015-03-05T23:30:00Z,30.2791,-87.5561,5.322,1111122 
DISL,ioos:station:DISL:PPTA:1,2015-03-06T00:00:00Z,30.2791,-87.5561,5.049,1111122 
DISL,ioos:station:DISL:PPTA:1,2015-03-06T00:30:00Z,30.2791,-87.5561,4.68,1111122 
DISL,ioos:station:DISL:PPTA:1,2015-03-06T01:00:00Z,30.2791,-87.5561,4.311,1111122 
DISL,ioos:station:DISL:PPTA:1,2015-03-06T01:30:00Z,30.2791,-87.5561,4.073,1111122 
DISL,ioos:station:DISL:PPTA:1,2015-03-06T02:00:00Z,30.2791,-87.5561,4.04,1111122 
DISL,ioos:station:DISL:PPTA:1,2015-03-06T02:30:00Z,30.2791,-87.5561,4.143,1111122 
DISL,ioos:station:DISL:PPTA:1,2015-03-06T03:00:00Z,30.2791,-87.5561,3.768,1111122 
DISL,ioos:station:DISL:PPTA:1,2015-03-06T03:30:00Z,30.2791,-87.5561,3.669,1111122 
DISL,ioos:station:DISL:PPTA:1,2015-03-06T04:00:00Z,30.2791,-87.5561,3.19,1111122 
DISL,ioos:station:DISL:PPTA:1,2015-03-06T04:30:00Z,30.2791,-87.5561,3.225,1111122 
DISL,ioos:station:DISL:PPTA:1,2015-03-06T05:00:00Z,30.2791,-87.5561,3.128,1111122 
DISL,ioos:station:DISL:PPTA:1,2015-03-06T05:30:00Z,30.2791,-87.5561,2.718,1111122 
DISL,ioos:station:DISL:PPTA:1,2015-03-06T06:00:00Z,30.2791,-87.5561,2.547,1111122 
DISL,ioos:station:DISL:PPTA:1,2015-03-06T06:30:00Z,30.2791,-87.5561,2.136,1111122 
DISL,ioos:station:DISL:PPTA:1,2015-03-06T07:00:00Z,30.2791,-87.5561,1.829,1111122 
DISL,ioos:station:DISL:PPTA:1,2015-03-06T07:30:00Z,30.2791,-87.5561,1.424,1111122 
DISL,ioos:station:DISL:PPTA:1,2015-03-06T08:00:00Z,30.2791,-87.5561,1.361,1111122 
DISL,ioos:station:DISL:PPTA:1,2015-03-06T08:30:00Z,30.2791,-87.5561,0.883,1111122 
DISL,ioos:station:DISL:PPTA:1,2015-03-06T09:00:00Z,30.2791,-87.5561,0.611,1111122 
DISL,ioos:station:DISL:PPTA:1,2015-03-06T09:30:00Z,30.2791,-87.5561,0.445,1111122 
DISL,ioos:station:DISL:PPTA:1,2015-03-06T10:00:00Z,30.2791,-87.5561,0.0,11111222 
DISL,ioos:station:DISL:PPTA:1,2015-03-06T10:30:00Z,30.2791,-87.5561,-0.4,11133222 
DISL,ioos:station:DISL:PPTA:1,2015-03-06T11:00:00Z,30.2791,-87.5561,-0.4,11133222 
DISL,ioos:station:DISL:PPTA:1,2015-03-06T11:30:00Z,30.2791,-87.5561,-0.6,11133222 
DISL,ioos:station:DISL:PPTA:1,2015-03-06T12:00:00Z,30.2791,-87.5561,-0.8,11133222 
DISL,ioos:station:DISL:PPTA:1,2015-03-06T12:30:00Z,30.2791,-87.5561,-1.0,11133222 
DISL,ioos:station:DISL:PPTA:1,2015-03-06T13:00:00Z,30.2791,-87.5561,-1.0,11133222 
DISL,ioos:station:DISL:PPTA:1,2015-03-06T13:30:00Z,30.2791,-87.5561,-0.5,11133222 
DISL,ioos:station:DISL:PPTA:1,2015-03-06T14:00:00Z,30.2791,-87.5561,-0.3,11133222 
DISL,ioos:station:DISL:PPTA:1,2015-03-06T14:30:00Z,30.2791,-87.5561,0.167,1111122 
DISL,ioos:station:DISL:PPTA:1,2015-03-06T15:00:00Z,30.2791,-87.5561,1.293,1111122 
DISL,ioos:station:DISL:PPTA:1,2015-03-06T15:30:00Z,30.2791,-87.5561,2.137,1111122 
DISL,ioos:station:DISL:PPTA:1,2015-03-06T16:00:00Z,30.2791,-87.5561,2.987,1111122 
DISL,ioos:station:DISL:PPTA:1,2015-03-06T16:30:00Z,30.2791,-87.5561,4.005,1111122 
DISL,ioos:station:DISL:PPTA:1,2015-03-06T17:00:00Z,30.2791,-87.5561,5.536,1111122 
DISL,ioos:station:DISL:PPTA:1,2015-03-06T17:30:00Z,30.2791,-87.5561,6.589,1111122 
DISL,ioos:station:DISL:PPTA:1,2015-03-06T18:00:00Z,30.2791,-87.5561,7.577,1111122 
DISL,ioos:station:DISL:PPTA:1,2015-03-06T18:30:00Z,30.2791,-87.5561,8.26,1111122 
DISL,ioos:station:DISL:PPTA:1,2015-03-06T19:00:00Z,30.2791,-87.5561,8.83,1111122 
DISL,ioos:station:DISL:PPTA:1,2015-03-06T19:30:00Z,30.2791,-87.5561,9.34,1111122 
DISL,ioos:station:DISL:PPTA:1,2015-03-06T20:00:00Z,30.2791,-87.5561,9.68,1111122 
DISL,ioos:station:DISL:PPTA:1,2015-03-06T20:30:00Z,30.2791,-87.5561,10.53,1111122 
DISL,ioos:station:DISL:PPTA:1,2015-03-06T21:00:00Z,30.2791,-87.5561,10.87,1111122 
DISL,ioos:station:DISL:PPTA:1,2015-03-06T21:30:00Z,30.2791,-87.5561,11.41,1111122 
DISL,ioos:station:DISL:PPTA:1,2015-03-06T22:00:00Z,30.2791,-87.5561,11.55,1111122 
DISL,ioos:station:DISL:PPTA:1,2015-03-06T22:30:00Z,30.2791,-87.5561,11.65,1111122 
DISL,ioos:station:DISL:PPTA:1,2015-03-06T23:00:00Z,30.2791,-87.5561,11.31,1111122 
DISL,ioos:station:DISL:PPTA:1,2015-03-06T23:30:00Z,30.2791,-87.5561,11.1,1111122 